Private Wetterstation Sandau
Wetterdaten: Sonntag, 15.04.2012
Datum Zeit Temp. A. Feuchte A. Luftdruck Regen Wind Richtung Richtung Taupunkt Windchill
15.04.2012 00:01 7,5 C 68 % 1007,8 hPa 0,0 l/m 4,3 km/h (1 Bft) O-NO 67 2,0 C 7,5 C
15.04.2012 00:06 7,5 C 68 % 1007,9 hPa 0,0 l/m 2,2 km/h (1 Bft) O-NO 67 2,0 C 7,5 C
15.04.2012 00:11 7,4 C 68 % 1007,9 hPa 0,0 l/m 1,4 km/h (1 Bft) O-NO 67 1,9 C 7,4 C
15.04.2012 00:16 7,3 C 68 % 1007,9 hPa 0,0 l/m 1,4 km/h (1 Bft) O-NO 67 1,8 C 7,3 C
15.04.2012 00:21 7,3 C 68 % 1008,0 hPa 0,0 l/m 2,2 km/h (1 Bft) O-NO 67 1,8 C 7,3 C
15.04.2012 00:26 7,2 C 68 % 1007,8 hPa 0,0 l/m 2,2 km/h (1 Bft) O-NO 67 1,7 C 7,2 C
15.04.2012 00:31 7,2 C 68 % 1007,9 hPa 0,0 l/m 2,2 km/h (1 Bft) O-NO 67 1,7 C 7,2 C
15.04.2012 00:36 7,1 C 68 % 1007,8 hPa 0,0 l/m 2,9 km/h (1 Bft) O-NO 67 1,6 C 7,1 C
15.04.2012 00:41 7,0 C 69 % 1007,8 hPa 0,0 l/m 5,0 km/h (1 Bft) O-NO 67 1,7 C 6,4 C
15.04.2012 00:46 6,9 C 69 % 1008,0 hPa 0,0 l/m 2,2 km/h (1 Bft) O 90 1,6 C 6,9 C
15.04.2012 00:51 6,9 C 69 % 1008,0 hPa 0,0 l/m 0,0 km/h (0 Bft) O-NO 67 1,6 C 6,9 C
15.04.2012 00:56 6,8 C 70 % 1008,0 hPa 0,0 l/m 0,0 km/h (0 Bft) O-NO 67 1,7 C 6,8 C
15.04.2012 01:01 6,8 C 70 % 1008,1 hPa 0,0 l/m 5,0 km/h (1 Bft) O-NO 67 1,7 C 6,1 C
15.04.2012 01:06 6,6 C 70 % 1008,1 hPa 0,0 l/m 3,6 km/h (1 Bft) O-NO 67 1,5 C 6,6 C
15.04.2012 01:11 6,6 C 70 % 1008,0 hPa 0,0 l/m 4,7 km/h (1 Bft) O-NO 67 1,5 C 6,0 C
15.04.2012 01:16 6,6 C 70 % 1008,1 hPa 0,0 l/m 3,6 km/h (1 Bft) O-NO 67 1,5 C 6,6 C
15.04.2012 01:21 6,5 C 70 % 1008,1 hPa 0,0 l/m 2,5 km/h (1 Bft) O-NO 67 1,4 C 6,5 C
15.04.2012 01:26 6,5 C 70 % 1008,2 hPa 0,0 l/m 2,5 km/h (1 Bft) O 90 1,4 C 6,5 C
15.04.2012 01:31 6,5 C 70 % 1008,0 hPa 0,0 l/m 5,0 km/h (1 Bft) O-NO 67 1,4 C 5,8 C
15.04.2012 01:36 6,4 C 70 % 1008,1 hPa 0,0 l/m 4,0 km/h (1 Bft) O-NO 67 1,3 C 6,4 C
15.04.2012 01:41 6,4 C 70 % 1008,1 hPa 0,0 l/m 2,5 km/h (1 Bft) O-NO 67 1,3 C 6,4 C
15.04.2012 01:46 6,4 C 71 % 1008,0 hPa 0,0 l/m 4,0 km/h (1 Bft) O-NO 67 1,5 C 6,4 C
15.04.2012 01:51 6,3 C 71 % 1008,0 hPa 0,0 l/m 5,0 km/h (1 Bft) O-NO 67 1,4 C 5,6 C
15.04.2012 01:56 6,2 C 71 % 1008,1 hPa 0,0 l/m 6,5 km/h (2 Bft) O-NO 67 1,3 C 4,9 C
15.04.2012 02:01 6,2 C 71 % 1008,0 hPa 0,0 l/m 3,6 km/h (1 Bft) O 90 1,3 C 6,2 C
15.04.2012 02:06 6,1 C 72 % 1008,2 hPa 0,0 l/m 5,8 km/h (2 Bft) O-NO 67 1,4 C 5,1 C
15.04.2012 02:11 6,1 C 72 % 1008,1 hPa 0,0 l/m 4,0 km/h (1 Bft) O 90 1,4 C 6,1 C
15.04.2012 02:16 5,9 C 72 % 1008,0 hPa 0,0 l/m 4,0 km/h (1 Bft) O-NO 67 1,2 C 5,9 C
15.04.2012 02:21 5,9 C 72 % 1008,1 hPa 0,0 l/m 5,4 km/h (1 Bft) O 90 1,2 C 5,0 C
15.04.2012 02:26 5,9 C 73 % 1008,1 hPa 0,0 l/m 5,4 km/h (1 Bft) O 90 1,4 C 5,0 C
15.04.2012 02:31 5,8 C 73 % 1008,2 hPa 0,0 l/m 5,8 km/h (2 Bft) O-NO 67 1,3 C 4,7 C
15.04.2012 02:36 5,7 C 74 % 1008,1 hPa 0,0 l/m 5,4 km/h (1 Bft) O-NO 67 1,4 C 4,7 C
15.04.2012 02:41 5,6 C 73 % 1008,2 hPa 0,0 l/m 4,0 km/h (1 Bft) O-NO 67 1,2 C 5,6 C
15.04.2012 02:46 5,5 C 74 % 1008,2 hPa 0,0 l/m 4,3 km/h (1 Bft) NO 45 1,2 C 5,5 C
15.04.2012 02:51 5,5 C 74 % 1008,2 hPa 0,0 l/m 4,0 km/h (1 Bft) O-NO 67 1,2 C 5,5 C
15.04.2012 02:56 5,4 C 75 % 1008,1 hPa 0,0 l/m 2,9 km/h (1 Bft) O-NO 67 1,3 C 5,4 C
15.04.2012 03:01 5,4 C 75 % 1008,0 hPa 0,0 l/m 3,2 km/h (1 Bft) O-NO 67 1,3 C 5,4 C
15.04.2012 03:06 5,3 C 75 % 1008,2 hPa 0,0 l/m 2,5 km/h (1 Bft) O-NO 67 1,2 C 5,3 C
15.04.2012 03:11 5,3 C 75 % 1008,1 hPa 0,0 l/m 0,0 km/h (0 Bft) O-NO 67 1,2 C 5,3 C
15.04.2012 03:16 5,3 C 76 % 1008,1 hPa 0,0 l/m 1,4 km/h (1 Bft) NO 45 1,4 C 5,3 C
15.04.2012 03:21 5,3 C 76 % 1008,3 hPa 0,0 l/m 2,9 km/h (1 Bft) O-NO 67 1,4 C 5,3 C
15.04.2012 03:26 5,2 C 76 % 1008,2 hPa 0,0 l/m 2,2 km/h (1 Bft) O-NO 67 1,3 C 5,2 C
15.04.2012 03:31 5,2 C 76 % 1008,2 hPa 0,0 l/m 2,2 km/h (1 Bft) O-NO 67 1,3 C 5,2 C
15.04.2012 03:36 5,1 C 77 % 1008,2 hPa 0,0 l/m 4,7 km/h (1 Bft) O-NO 67 1,4 C 4,3 C
15.04.2012 03:41 5,1 C 77 % 1008,3 hPa 0,0 l/m 3,2 km/h (1 Bft) O-NO 67 1,4 C 5,1 C
15.04.2012 03:46 5,0 C 77 % 1008,4 hPa 0,0 l/m 4,0 km/h (1 Bft) O 90 1,3 C 5,0 C
15.04.2012 03:51 5,0 C 77 % 1008,4 hPa 0,0 l/m 4,0 km/h (1 Bft) O-NO 67 1,3 C 5,0 C
15.04.2012 03:56 4,9 C 77 % 1008,5 hPa 0,0 l/m 5,0 km/h (1 Bft) O-NO 67 1,2 C 4,0 C
15.04.2012 04:01 4,9 C 77 % 1008,1 hPa 0,0 l/m 3,6 km/h (1 Bft) O 90 1,2 C 4,9 C
15.04.2012 04:06 4,9 C 78 % 1008,2 hPa 0,0 l/m 1,8 km/h (1 Bft) O-NO 67 1,4 C 4,9 C
15.04.2012 04:11 4,9 C 78 % 1008,3 hPa 0,0 l/m 2,5 km/h (1 Bft) O-NO 67 1,4 C 4,9 C
15.04.2012 04:16 4,9 C 78 % 1008,2 hPa 0,0 l/m 1,4 km/h (1 Bft) O-NO 67 1,4 C 4,9 C
15.04.2012 04:21 4,8 C 78 % 1008,2 hPa 0,0 l/m 2,5 km/h (1 Bft) O-NO 67 1,3 C 4,8 C
15.04.2012 04:26 4,8 C 78 % 1008,2 hPa 0,0 l/m 3,6 km/h (1 Bft) O-NO 67 1,3 C 4,8 C
15.04.2012 04:31 4,7 C 78 % 1008,3 hPa 0,0 l/m 4,7 km/h (1 Bft) O-NO 67 1,2 C 3,9 C
15.04.2012 04:36 4,6 C 79 % 1008,2 hPa 0,0 l/m 0,0 km/h (0 Bft) O-NO 67 1,3 C 4,6 C
15.04.2012 04:41 4,6 C 79 % 1008,4 hPa 0,0 l/m 2,5 km/h (1 Bft) O-NO 67 1,3 C 4,6 C
15.04.2012 04:46 4,6 C 79 % 1008,4 hPa 0,0 l/m 2,5 km/h (1 Bft) NO 45 1,3 C 4,6 C
15.04.2012 04:51 4,5 C 79 % 1008,4 hPa 0,0 l/m 3,6 km/h (1 Bft) O-NO 67 1,2 C 4,5 C
15.04.2012 04:56 4,5 C 79 % 1008,5 hPa 0,0 l/m 2,9 km/h (1 Bft) O-NO 67 1,2 C 4,5 C
15.04.2012 05:01 4,4 C 79 % 1008,4 hPa 0,0 l/m 3,2 km/h (1 Bft) O-NO 67 1,1 C 4,4 C
15.04.2012 05:06 4,4 C 79 % 1008,3 hPa 0,0 l/m 4,3 km/h (1 Bft) O 90 1,1 C 4,4 C
15.04.2012 05:11 4,4 C 80 % 1008,2 hPa 0,0 l/m 4,3 km/h (1 Bft) O 90 1,3 C 4,4 C
15.04.2012 05:16 4,4 C 80 % 1008,2 hPa 0,0 l/m 4,7 km/h (1 Bft) O-NO 67 1,3 C 3,5 C
15.04.2012 05:21 4,4 C 80 % 1008,2 hPa 0,0 l/m 4,0 km/h (1 Bft) O 90 1,3 C 4,4 C
15.04.2012 05:26 4,4 C 80 % 1008,2 hPa 0,0 l/m 5,8 km/h (2 Bft) O 90 1,3 C 3,1 C
15.04.2012 05:31 4,3 C 80 % 1008,3 hPa 0,0 l/m 4,7 km/h (1 Bft) O-SO 112 1,2 C 3,4 C
15.04.2012 05:36 4,3 C 79 % 1008,2 hPa 0,0 l/m 5,0 km/h (1 Bft) O-NO 67 1,0 C 3,3 C
15.04.2012 05:41 4,3 C 79 % 1008,3 hPa 0,0 l/m 4,7 km/h (1 Bft) O-NO 67 1,0 C 3,4 C
15.04.2012 05:46 4,2 C 79 % 1008,4 hPa 0,0 l/m 4,3 km/h (1 Bft) O-NO 67 0,9 C 4,2 C
15.04.2012 05:51 4,2 C 79 % 1008,4 hPa 0,0 l/m 2,5 km/h (1 Bft) O-NO 67 0,9 C 4,2 C
15.04.2012 05:56 4,1 C 79 % 1008,4 hPa 0,0 l/m 2,9 km/h (1 Bft) O-NO 67 0,8 C 4,1 C
15.04.2012 06:01 4,1 C 79 % 1008,4 hPa 0,0 l/m 3,6 km/h (1 Bft) O 90 0,8 C 4,1 C
15.04.2012 06:06 4,1 C 79 % 1008,5 hPa 0,0 l/m 4,3 km/h (1 Bft) O-NO 67 0,8 C 4,1 C
15.04.2012 06:11 4,0 C 80 % 1008,4 hPa 0,0 l/m 2,5 km/h (1 Bft) O-NO 67 0,9 C 4,0 C
15.04.2012 06:16 3,9 C 80 % 1008,6 hPa 0,0 l/m 2,9 km/h (1 Bft) O-NO 67 0,8 C 3,9 C
15.04.2012 06:21 3,9 C 80 % 1008,7 hPa 0,0 l/m 2,2 km/h (1 Bft) O-NO 67 0,8 C 3,9 C
15.04.2012 06:26 3,9 C 80 % 1008,7 hPa 0,0 l/m 2,9 km/h (1 Bft) O-NO 67 0,8 C 3,9 C
15.04.2012 06:31 3,9 C 80 % 1008,8 hPa 0,0 l/m 4,7 km/h (1 Bft) O 90 0,8 C 3,0 C
15.04.2012 06:36 3,9 C 80 % 1008,9 hPa 0,0 l/m 3,2 km/h (1 Bft) O-NO 67 0,8 C 3,9 C
15.04.2012 06:41 3,9 C 80 % 1008,8 hPa 0,0 l/m 3,2 km/h (1 Bft) O-NO 67 0,8 C 3,9 C
15.04.2012 06:46 3,9 C 80 % 1008,8 hPa 0,0 l/m 1,8 km/h (1 Bft) NO 45 0,8 C 3,9 C
15.04.2012 06:51 3,9 C 81 % 1008,8 hPa 0,0 l/m 2,5 km/h (1 Bft) O-NO 67 0,9 C 3,9 C
15.04.2012 06:56 3,8 C 81 % 1008,8 hPa 0,0 l/m 3,6 km/h (1 Bft) O 90 0,8 C 3,8 C
15.04.2012 07:01 3,9 C 81 % 1008,9 hPa 0,0 l/m 2,2 km/h (1 Bft) O-NO 67 0,9 C 3,9 C
15.04.2012 07:06 3,9 C 81 % 1009,0 hPa 0,0 l/m 0,0 km/h (0 Bft) O-NO 67 0,9 C 3,9 C
15.04.2012 07:11 3,9 C 81 % 1009,1 hPa 0,0 l/m 2,5 km/h (1 Bft) O-NO 67 0,9 C 3,9 C
15.04.2012 07:16 3,9 C 81 % 1009,1 hPa 0,0 l/m 2,2 km/h (1 Bft) O-NO 67 0,9 C 3,9 C
15.04.2012 07:21 3,9 C 81 % 1009,1 hPa 0,0 l/m 2,9 km/h (1 Bft) O-NO 67 0,9 C 3,9 C
15.04.2012 07:26 3,9 C 81 % 1009,1 hPa 0,0 l/m 1,8 km/h (1 Bft) O-NO 67 0,9 C 3,9 C
15.04.2012 07:31 3,9 C 81 % 1009,2 hPa 0,0 l/m 2,5 km/h (1 Bft) O-NO 67 0,9 C 3,9 C
15.04.2012 07:36 4,1 C 81 % 1009,2 hPa 0,0 l/m 1,4 km/h (1 Bft) O-NO 67 1,1 C 4,1 C
15.04.2012 07:41 4,1 C 81 % 1009,3 hPa 0,0 l/m 2,5 km/h (1 Bft) O-NO 67 1,1 C 4,1 C
15.04.2012 07:46 4,1 C 81 % 1009,4 hPa 0,0 l/m 1,8 km/h (1 Bft) O 90 1,1 C 4,1 C
15.04.2012 07:51 4,1 C 81 % 1009,5 hPa 0,0 l/m 1,4 km/h (1 Bft) O-NO 67 1,1 C 4,1 C
15.04.2012 07:56 4,2 C 81 % 1009,5 hPa 0,0 l/m 2,5 km/h (1 Bft) O-NO 67 1,2 C 4,2 C
15.04.2012 08:01 4,3 C 81 % 1009,5 hPa 0,0 l/m 4,0 km/h (1 Bft) O-NO 67 1,3 C 4,3 C
15.04.2012 08:06 4,3 C 81 % 1009,5 hPa 0,0 l/m 4,7 km/h (1 Bft) O 90 1,3 C 3,4 C
15.04.2012 08:11 4,4 C 81 % 1009,5 hPa 0,0 l/m 2,5 km/h (1 Bft) O-NO 67 1,4 C 4,4 C
15.04.2012 08:16 4,5 C 81 % 1009,4 hPa 0,0 l/m 2,2 km/h (1 Bft) O-NO 67 1,5 C 4,5 C
15.04.2012 08:21 4,6 C 81 % 1009,3 hPa 0,0 l/m 4,3 km/h (1 Bft) O 90 1,6 C 4,6 C
15.04.2012 08:26 4,8 C 81 % 1009,4 hPa 0,0 l/m 1,8 km/h (1 Bft) O-NO 67 1,8 C 4,8 C
15.04.2012 08:31 4,9 C 81 % 1009,4 hPa 0,0 l/m 3,6 km/h (1 Bft) O-NO 67 1,9 C 4,9 C
15.04.2012 08:36 5,0 C 80 % 1009,5 hPa 0,0 l/m 5,0 km/h (1 Bft) O 90 1,8 C 4,1 C
15.04.2012 08:41 5,2 C 80 % 1009,8 hPa 0,0 l/m 3,2 km/h (1 Bft) O 90 2,0 C 5,2 C
15.04.2012 08:46 5,4 C 81 % 1009,7 hPa 0,0 l/m 4,7 km/h (1 Bft) O-NO 67 2,4 C 4,7 C
15.04.2012 08:51 5,6 C 80 % 1009,9 hPa 0,0 l/m 5,0 km/h (1 Bft) O-NO 67 2,4 C 4,8 C
15.04.2012 08:56 5,8 C 80 % 1009,8 hPa 0,0 l/m 0,0 km/h (0 Bft) O 90 2,6 C 5,8 C
15.04.2012 09:01 5,9 C 80 % 1009,8 hPa 0,0 l/m 5,4 km/h (1 Bft) O 90 2,7 C 5,0 C
15.04.2012 09:06 6,3 C 80 % 1009,8 hPa 0,0 l/m 0,0 km/h (0 Bft) O-SO 112 3,1 C 6,3 C
15.04.2012 09:11 6,4 C 80 % 1009,9 hPa 0,0 l/m 7,2 km/h (2 Bft) O-SO 112 3,2 C 5,0 C
15.04.2012 09:16 6,8 C 79 % 1009,8 hPa 0,0 l/m 4,0 km/h (1 Bft) O-NO 67 3,4 C 6,8 C
15.04.2012 09:21 6,9 C 79 % 1009,8 hPa 0,0 l/m 3,2 km/h (1 Bft) O 90 3,5 C 6,9 C
15.04.2012 09:26 7,3 C 78 % 1010,0 hPa 0,0 l/m 6,5 km/h (2 Bft) O-NO 67 3,7 C 6,2 C
15.04.2012 09:31 7,5 C 77 % 1010,0 hPa 0,0 l/m 4,3 km/h (1 Bft) O 90 3,7 C 7,5 C
15.04.2012 09:36 7,8 C 76 % 1009,9 hPa 0,0 l/m 4,0 km/h (1 Bft) O-SO 112 3,8 C 7,8 C
15.04.2012 09:41 8,1 C 75 % 1009,9 hPa 0,0 l/m 7,2 km/h (2 Bft) O 90 3,9 C 7,0 C
15.04.2012 09:46 8,3 C 74 % 1010,0 hPa 0,0 l/m 1,8 km/h (1 Bft) O-SO 112 3,9 C 8,3 C
15.04.2012 09:51 8,4 C 73 % 1010,1 hPa 0,0 l/m 6,1 km/h (2 Bft) O-SO 112 3,8 C 7,6 C
15.04.2012 09:56 8,6 C 72 % 1010,2 hPa 0,0 l/m 4,3 km/h (1 Bft) O-NO 67 3,8 C 8,6 C
15.04.2012 10:01 8,6 C 72 % 1010,0 hPa 0,0 l/m 1,8 km/h (1 Bft) O-SO 112 3,8 C 8,6 C
15.04.2012 10:06 8,8 C 71 % 1010,2 hPa 0,0 l/m 4,7 km/h (1 Bft) O-NO 67 3,8 C 8,5 C
15.04.2012 10:11 8,9 C 70 % 1010,3 hPa 0,0 l/m 0,0 km/h (0 Bft) O 90 3,7 C 8,9 C
15.04.2012 10:16 9,0 C 70 % 1010,2 hPa 0,0 l/m 0,0 km/h (0 Bft) O-SO 112 3,8 C 9,0 C
15.04.2012 10:21 9,1 C 70 % 1010,2 hPa 0,0 l/m 0,0 km/h (0 Bft) NO 45 3,9 C 9,1 C
15.04.2012 10:26 9,3 C 69 % 1010,4 hPa 0,0 l/m 0,0 km/h (0 Bft) O-SO 112 3,9 C 9,3 C
15.04.2012 10:31 9,5 C 68 % 1010,4 hPa 0,0 l/m 2,5 km/h (1 Bft) O 90 3,9 C 9,5 C
15.04.2012 10:36 9,6 C 68 % 1010,3 hPa 0,0 l/m 0,0 km/h (0 Bft) SO 135 4,0 C 9,6 C
15.04.2012 10:41 9,9 C 68 % 1010,4 hPa 0,0 l/m 2,9 km/h (1 Bft) O-NO 67 4,3 C 9,9 C
15.04.2012 10:46 10,3 C 66 % 1010,3 hPa 0,0 l/m 5,4 km/h (1 Bft) NO 45 4,2 C 10,3 C
15.04.2012 10:51 10,4 C 65 % 1010,3 hPa 0,0 l/m 7,9 km/h (2 Bft) O 90 4,1 C 10,4 C
15.04.2012 10:56 10,6 C 65 % 1010,3 hPa 0,0 l/m 3,2 km/h (1 Bft) O 90 4,3 C 10,6 C
15.04.2012 11:01 10,9 C 64 % 1010,3 hPa 0,0 l/m 0,0 km/h (0 Bft) SO 135 4,4 C 10,9 C
15.04.2012 11:06 11,0 C 63 % 1010,3 hPa 0,0 l/m 4,0 km/h (1 Bft) O-NO 67 4,2 C 11,0 C
15.04.2012 11:11 11,2 C 62 % 1010,3 hPa 0,0 l/m 4,7 km/h (1 Bft) O 90 4,2 C 11,2 C
15.04.2012 11:16 11,4 C 61 % 1010,3 hPa 0,0 l/m 3,2 km/h (1 Bft) O-NO 67 4,2 C 11,4 C
15.04.2012 11:21 11,6 C 60 % 1010,4 hPa 0,0 l/m 5,4 km/h (1 Bft) N-NO 22 4,1 C 11,6 C
15.04.2012 11:26 11,8 C 58 % 1010,3 hPa 0,0 l/m 5,8 km/h (2 Bft) O-SO 112 3,8 C 11,8 C
15.04.2012 11:31 11,9 C 57 % 1010,3 hPa 0,0 l/m 11,2 km/h (2 Bft) O 90 3,7 C 11,9 C
15.04.2012 11:36 11,9 C 56 % 1010,3 hPa 0,0 l/m 7,2 km/h (2 Bft) O 90 3,4 C 11,9 C
15.04.2012 11:41 12,2 C 56 % 1010,3 hPa 0,0 l/m 8,3 km/h (2 Bft) O-NO 67 3,7 C 12,2 C
15.04.2012 11:46 12,4 C 53 % 1010,3 hPa 0,0 l/m 4,7 km/h (1 Bft) NO 45 3,1 C 12,4 C
15.04.2012 11:51 12,6 C 54 % 1010,3 hPa 0,0 l/m 7,2 km/h (2 Bft) O-NO 67 3,5 C 12,6 C
15.04.2012 11:56 12,9 C 54 % 1010,2 hPa 0,0 l/m 6,1 km/h (2 Bft) O-NO 67 3,8 C 12,9 C
15.04.2012 12:01 13,1 C 52 % 1010,4 hPa 0,0 l/m 20,5 km/h (4 Bft) O-NO 67 3,5 C 13,1 C
15.04.2012 12:06 13,1 C 52 % 1010,2 hPa 0,0 l/m 15,8 km/h (3 Bft) NO 45 3,5 C 13,1 C
15.04.2012 12:11 13,2 C 51 % 1010,3 hPa 0,0 l/m 8,6 km/h (2 Bft) NO 45 3,3 C 13,2 C
15.04.2012 12:16 13,3 C 51 % 1010,2 hPa 0,0 l/m 11,2 km/h (2 Bft) N 360 3,4 C 13,3 C
15.04.2012 12:21 13,3 C 52 % 1010,2 hPa 0,0 l/m 5,0 km/h (1 Bft) N-NW 337 3,7 C 13,3 C
15.04.2012 12:26 13,5 C 51 % 1010,2 hPa 0,0 l/m 6,5 km/h (2 Bft) NO 45 3,6 C 13,5 C
15.04.2012 12:31 13,7 C 50 % 1010,1 hPa 0,0 l/m 3,2 km/h (1 Bft) NO 45 3,5 C 13,7 C
15.04.2012 12:36 13,9 C 49 % 1010,1 hPa 0,0 l/m 7,2 km/h (2 Bft) NO 45 3,4 C 13,9 C
15.04.2012 12:41 13,9 C 46 % 1010,2 hPa 0,0 l/m 9,7 km/h (2 Bft) NO 45 2,5 C 13,9 C
15.04.2012 12:46 13,8 C 46 % 1010,0 hPa 0,0 l/m 3,6 km/h (1 Bft) O-NO 67 2,4 C 13,8 C
15.04.2012 12:51 13,8 C 44 % 1010,1 hPa 0,0 l/m 9,7 km/h (2 Bft) W-NW 292 1,8 C 13,8 C
15.04.2012 12:56 13,7 C 42 % 1010,2 hPa 0,0 l/m 8,3 km/h (2 Bft) O 90 1,0 C 13,7 C
15.04.2012 13:01 13,6 C 41 % 1010,2 hPa 0,0 l/m 7,6 km/h (2 Bft) N-NW 337 0,6 C 13,6 C
15.04.2012 13:06 13,6 C 42 % 1010,1 hPa 0,0 l/m 6,8 km/h (2 Bft) N-NO 22 0,9 C 13,6 C
15.04.2012 13:11 13,9 C 43 % 1010,0 hPa 0,0 l/m 7,2 km/h (2 Bft) N-NO 22 1,5 C 13,9 C
15.04.2012 13:16 14,1 C 43 % 1010,2 hPa 0,0 l/m 7,2 km/h (2 Bft) N-NO 22 1,7 C 14,1 C
15.04.2012 13:21 14,3 C 43 % 1010,1 hPa 0,0 l/m 10,4 km/h (2 Bft) NO 45 1,9 C 14,3 C
15.04.2012 13:26 14,3 C 43 % 1010,1 hPa 0,0 l/m 10,1 km/h (2 Bft) NO 45 1,9 C 14,3 C
15.04.2012 13:31 14,4 C 43 % 1010,0 hPa 0,0 l/m 9,0 km/h (2 Bft) N-NO 22 2,0 C 14,4 C
15.04.2012 13:36 14,6 C 42 % 1009,9 hPa 0,0 l/m 11,9 km/h (2 Bft) NO 45 1,8 C 14,6 C
15.04.2012 13:41 14,7 C 42 % 1010,0 hPa 0,0 l/m 9,0 km/h (2 Bft) O 90 1,9 C 14,7 C
15.04.2012 13:46 14,8 C 41 % 1010,1 hPa 0,0 l/m 4,0 km/h (1 Bft) O-NO 67 1,7 C 14,8 C
15.04.2012 13:51 14,9 C 41 % 1010,1 hPa 0,0 l/m 11,2 km/h (2 Bft) N-NW 337 1,8 C 14,9 C
15.04.2012 13:56 14,8 C 39 % 1010,0 hPa 0,0 l/m 21,2 km/h (4 Bft) O-NO 67 1,0 C 14,8 C
15.04.2012 14:01 14,7 C 40 % 1010,0 hPa 0,0 l/m 11,5 km/h (2 Bft) NO 45 1,2 C 14,7 C
15.04.2012 14:06 14,9 C 41 % 1010,0 hPa 0,0 l/m 14,8 km/h (3 Bft) NO 45 1,8 C 14,9 C
15.04.2012 14:11 14,8 C 39 % 1009,9 hPa 0,0 l/m 5,0 km/h (1 Bft) O-NO 67 1,0 C 14,8 C
15.04.2012 14:16 14,6 C 41 % 1010,0 hPa 0,0 l/m 25,2 km/h (4 Bft) O-NO 67 1,5 C 14,6 C
15.04.2012 14:21 14,5 C 39 % 1010,0 hPa 0,0 l/m 14,8 km/h (3 Bft) NO 45 0,7 C 14,5 C
15.04.2012 14:26 14,4 C 39 % 1010,2 hPa 0,0 l/m 11,2 km/h (2 Bft) O-NO 67 0,6 C 14,4 C
15.04.2012 14:31 14,4 C 38 % 1010,0 hPa 0,0 l/m 7,9 km/h (2 Bft) NO 45 0,3 C 14,4 C
15.04.2012 14:36 14,4 C 39 % 1009,9 hPa 0,0 l/m 9,7 km/h (2 Bft) N-NO 22 0,6 C 14,4 C
15.04.2012 14:41 14,3 C 38 % 1010,0 hPa 0,0 l/m 20,5 km/h (4 Bft) NO 45 0,2 C 14,3 C
15.04.2012 14:46 14,1 C 38 % 1010,0 hPa 0,0 l/m 12,2 km/h (2 Bft) NO 45 0,0 C 14,1 C
15.04.2012 14:51 14,3 C 39 % 1010,0 hPa 0,0 l/m 15,8 km/h (3 Bft) O-NO 67 0,5 C 14,3 C
15.04.2012 14:56 14,5 C 38 % 1010,2 hPa 0,0 l/m 10,8 km/h (2 Bft) N-NO 22 0,4 C 14,5 C
15.04.2012 15:01 14,4 C 38 % 1009,9 hPa 0,0 l/m 14,8 km/h (3 Bft) NO 45 0,3 C 14,4 C
15.04.2012 15:06 14,4 C 39 % 1010,0 hPa 0,0 l/m 13,0 km/h (3 Bft) O-NO 67 0,6 C 14,4 C
15.04.2012 15:11 14,5 C 39 % 1009,9 hPa 0,0 l/m 14,0 km/h (3 Bft) O-NO 67 0,7 C 14,5 C
15.04.2012 15:16 14,5 C 38 % 1010,0 hPa 0,0 l/m 5,8 km/h (2 Bft) O-NO 67 0,4 C 14,5 C
15.04.2012 15:21 14,6 C 38 % 1009,9 hPa 0,0 l/m 11,5 km/h (2 Bft) NO 45 0,4 C 14,6 C
15.04.2012 15:26 14,8 C 38 % 1010,0 hPa 0,0 l/m 7,6 km/h (2 Bft) NW 315 0,6 C 14,8 C
15.04.2012 15:31 14,9 C 37 % 1010,2 hPa 0,0 l/m 18,0 km/h (3 Bft) O 90 0,3 C 14,9 C
15.04.2012 15:36 14,9 C 36 % 1010,0 hPa 0,0 l/m 14,0 km/h (3 Bft) N-NO 22 -0,0 C 14,9 C
15.04.2012 15:41 14,9 C 35 % 1009,9 hPa 0,0 l/m 12,2 km/h (2 Bft) NO 45 -0,4 C 14,9 C
15.04.2012 15:46 14,9 C 35 % 1010,0 hPa 0,0 l/m 15,8 km/h (3 Bft) N-NO 22 -0,4 C 14,9 C
15.04.2012 15:51 14,9 C 36 % 1009,9 hPa 0,0 l/m 9,7 km/h (2 Bft) O 90 -0,0 C 14,9 C
15.04.2012 15:56 14,9 C 35 % 1010,1 hPa 0,0 l/m 11,9 km/h (2 Bft) NO 45 -0,4 C 14,9 C
15.04.2012 16:01 15,0 C 34 % 1010,0 hPa 0,0 l/m 3,6 km/h (1 Bft) O-NO 67 -0,7 C 15,0 C
15.04.2012 16:06 15,2 C 35 % 1009,9 hPa 0,0 l/m 6,1 km/h (2 Bft) NO 45 -0,2 C 15,2 C
15.04.2012 16:11 15,2 C 34 % 1009,9 hPa 0,0 l/m 14,0 km/h (3 Bft) N 360 -0,5 C 15,2 C
15.04.2012 16:16 15,0 C 34 % 1009,9 hPa 0,0 l/m 14,4 km/h (3 Bft) NO 45 -0,7 C 15,0 C
15.04.2012 16:21 14,9 C 35 % 1009,8 hPa 0,0 l/m 17,3 km/h (3 Bft) O-NO 67 -0,4 C 14,9 C
15.04.2012 16:26 14,9 C 34 % 1009,9 hPa 0,0 l/m 11,9 km/h (2 Bft) O-NO 67 -0,8 C 14,9 C
15.04.2012 16:31 15,0 C 35 % 1009,9 hPa 0,0 l/m 11,9 km/h (2 Bft) NO 45 -0,3 C 15,0 C
15.04.2012 16:36 15,1 C 34 % 1010,0 hPa 0,0 l/m 5,0 km/h (1 Bft) O-SO 112 -0,6 C 15,1 C
15.04.2012 16:41 15,2 C 35 % 1009,9 hPa 0,0 l/m 7,2 km/h (2 Bft) O-NO 67 -0,2 C 15,2 C
15.04.2012 16:46 15,1 C 34 % 1009,9 hPa 0,0 l/m 9,4 km/h (2 Bft) N 360 -0,6 C 15,1 C
15.04.2012 16:51 14,9 C 34 % 1009,9 hPa 0,0 l/m 6,1 km/h (2 Bft) O-NO 67 -0,8 C 14,9 C
15.04.2012 16:56 14,9 C 33 % 1010,0 hPa 0,0 l/m 8,6 km/h (2 Bft) NO 45 -1,2 C 14,9 C
15.04.2012 17:01 14,9 C 34 % 1010,0 hPa 0,0 l/m 10,4 km/h (2 Bft) N 360 -0,8 C 14,9 C
15.04.2012 17:06 14,9 C 34 % 1010,1 hPa 0,0 l/m 19,4 km/h (3 Bft) O 90 -0,8 C 14,9 C
15.04.2012 17:11 14,8 C 34 % 1010,1 hPa 0,0 l/m 15,5 km/h (3 Bft) NO 45 -0,9 C 14,8 C
15.04.2012 17:16 14,8 C 34 % 1010,1 hPa 0,0 l/m 20,5 km/h (4 Bft) N 360 -0,9 C 14,8 C
15.04.2012 17:21 14,6 C 35 % 1010,2 hPa 0,0 l/m 7,2 km/h (2 Bft) O-NO 67 -0,7 C 14,6 C
15.04.2012 17:26 14,7 C 35 % 1010,2 hPa 0,0 l/m 17,3 km/h (3 Bft) N-NO 22 -0,6 C 14,7 C
15.04.2012 17:31 14,8 C 36 % 1010,3 hPa 0,0 l/m 19,1 km/h (3 Bft) O-NO 67 -0,1 C 14,8 C
15.04.2012 17:36 14,6 C 35 % 1010,4 hPa 0,0 l/m 15,1 km/h (3 Bft) N-NO 22 -0,7 C 14,6 C
15.04.2012 17:41 14,5 C 36 % 1010,3 hPa 0,0 l/m 17,6 km/h (3 Bft) NO 45 -0,4 C 14,5 C
15.04.2012 17:46 14,4 C 35 % 1010,3 hPa 0,0 l/m 13,3 km/h (3 Bft) NO 45 -0,9 C 14,4 C
15.04.2012 17:51 14,4 C 35 % 1010,3 hPa 0,0 l/m 8,6 km/h (2 Bft) NO 45 -0,9 C 14,4 C
15.04.2012 17:56 14,4 C 35 % 1010,3 hPa 0,0 l/m 8,3 km/h (2 Bft) O-NO 67 -0,9 C 14,4 C
15.04.2012 18:01 14,3 C 35 % 1010,3 hPa 0,0 l/m 4,0 km/h (1 Bft) NO 45 -0,9 C 14,3 C
15.04.2012 18:06 14,3 C 35 % 1010,3 hPa 0,0 l/m 9,4 km/h (2 Bft) O-NO 67 -0,9 C 14,3 C
15.04.2012 18:11 14,2 C 35 % 1010,3 hPa 0,0 l/m 5,0 km/h (1 Bft) NO 45 -1,0 C 14,2 C
15.04.2012 18:16 14,1 C 34 % 1010,4 hPa 0,0 l/m 6,5 km/h (2 Bft) O-NO 67 -1,5 C 14,1 C
15.04.2012 18:21 13,9 C 33 % 1010,4 hPa 0,0 l/m 9,4 km/h (2 Bft) NO 45 -2,1 C 13,9 C
15.04.2012 18:26 13,8 C 33 % 1010,5 hPa 0,0 l/m 6,5 km/h (2 Bft) O-NO 67 -2,2 C 13,8 C
15.04.2012 18:31 13,7 C 33 % 1010,5 hPa 0,0 l/m 9,7 km/h (2 Bft) O 90 -2,3 C 13,7 C
15.04.2012 18:36 13,6 C 33 % 1010,6 hPa 0,0 l/m 11,5 km/h (2 Bft) O-NO 67 -2,4 C 13,6 C
15.04.2012 18:41 13,4 C 35 % 1010,8 hPa 0,0 l/m 9,7 km/h (2 Bft) O-NO 67 -1,7 C 13,4 C
15.04.2012 18:46 13,4 C 35 % 1010,6 hPa 0,0 l/m 8,3 km/h (2 Bft) O-NO 67 -1,7 C 13,4 C
15.04.2012 18:51 13,3 C 35 % 1010,7 hPa 0,0 l/m 4,0 km/h (1 Bft) NO 45 -1,8 C 13,3 C
15.04.2012 18:56 13,3 C 35 % 1010,7 hPa 0,0 l/m 9,0 km/h (2 Bft) O-NO 67 -1,8 C 13,3 C
15.04.2012 19:01 13,3 C 36 % 1010,9 hPa 0,0 l/m 4,0 km/h (1 Bft) O-NO 67 -1,4 C 13,3 C
15.04.2012 19:06 13,2 C 36 % 1010,8 hPa 0,0 l/m 13,3 km/h (3 Bft) N-NO 22 -1,5 C 13,2 C
15.04.2012 19:11 13,0 C 37 % 1010,8 hPa 0,0 l/m 7,6 km/h (2 Bft) O 90 -1,3 C 13,0 C
15.04.2012 19:16 12,9 C 37 % 1010,9 hPa 0,0 l/m 11,2 km/h (2 Bft) O-NO 67 -1,4 C 12,9 C
15.04.2012 19:21 12,8 C 37 % 1010,9 hPa 0,0 l/m 5,4 km/h (1 Bft) N-NO 22 -1,5 C 12,8 C
15.04.2012 19:26 12,6 C 37 % 1011,0 hPa 0,0 l/m 5,0 km/h (1 Bft) O-NO 67 -1,7 C 12,6 C
15.04.2012 19:31 12,5 C 37 % 1011,0 hPa 0,0 l/m 12,2 km/h (2 Bft) O 90 -1,8 C 12,5 C
15.04.2012 19:36 12,4 C 37 % 1011,1 hPa 0,0 l/m 6,1 km/h (2 Bft) N-NO 22 -1,9 C 12,4 C
15.04.2012 19:41 12,1 C 38 % 1011,1 hPa 0,0 l/m 5,0 km/h (1 Bft) N-NO 22 -1,8 C 12,1 C
15.04.2012 19:46 12,1 C 38 % 1011,3 hPa 0,0 l/m 4,7 km/h (1 Bft) NO 45 -1,8 C 12,1 C
15.04.2012 19:51 11,9 C 39 % 1011,3 hPa 0,0 l/m 4,3 km/h (1 Bft) O-NO 67 -1,6 C 11,9 C
15.04.2012 19:56 11,8 C 39 % 1011,5 hPa 0,0 l/m 13,3 km/h (3 Bft) NO 45 -1,7 C 11,8 C
15.04.2012 20:01 11,6 C 40 % 1011,5 hPa 0,0 l/m 7,9 km/h (2 Bft) N-NO 22 -1,5 C 11,6 C
15.04.2012 20:06 11,5 C 40 % 1011,6 hPa 0,0 l/m 4,0 km/h (1 Bft) O-NO 67 -1,6 C 11,5 C
15.04.2012 20:11 11,4 C 41 % 1011,6 hPa 0,0 l/m 1,8 km/h (1 Bft) O-NO 67 -1,4 C 11,4 C
15.04.2012 20:16 11,3 C 41 % 1011,8 hPa 0,0 l/m 4,7 km/h (1 Bft) N-NO 22 -1,5 C 11,3 C
15.04.2012 20:21 11,1 C 42 % 1011,7 hPa 0,0 l/m 6,1 km/h (2 Bft) N-NO 22 -1,3 C 11,1 C
15.04.2012 20:26 10,9 C 42 % 1011,9 hPa 0,0 l/m 12,2 km/h (2 Bft) NO 45 -1,5 C 10,9 C
15.04.2012 20:31 10,8 C 42 % 1012,0 hPa 0,0 l/m 10,8 km/h (2 Bft) N 360 -1,6 C 10,8 C
15.04.2012 20:36 10,6 C 43 % 1012,2 hPa 0,0 l/m 5,8 km/h (2 Bft) NO 45 -1,4 C 10,6 C
15.04.2012 20:41 10,5 C 44 % 1012,4 hPa 0,0 l/m 5,8 km/h (2 Bft) N-NO 22 -1,2 C 10,5 C
15.04.2012 20:46 10,4 C 44 % 1012,4 hPa 0,0 l/m 4,0 km/h (1 Bft) NO 45 -1,3 C 10,4 C
15.04.2012 20:51 10,2 C 44 % 1012,4 hPa 0,0 l/m 5,0 km/h (1 Bft) N-NO 22 -1,5 C 10,2 C
15.04.2012 20:56 10,1 C 45 % 1012,4 hPa 0,0 l/m 4,7 km/h (1 Bft) NO 45 -1,3 C 10,1 C
15.04.2012 21:01 10,0 C 46 % 1012,5 hPa 0,0 l/m 6,1 km/h (2 Bft) O-NO 67 -1,1 C 9,4 C
15.04.2012 21:06 9,9 C 46 % 1012,7 hPa 0,0 l/m 5,0 km/h (1 Bft) NO 45 -1,2 C 9,6 C
15.04.2012 21:11 9,8 C 47 % 1012,8 hPa 0,0 l/m 7,6 km/h (2 Bft) N-NO 22 -1,0 C 8,9 C
15.04.2012 21:16 9,6 C 48 % 1012,7 hPa 0,0 l/m 12,2 km/h (2 Bft) NO 45 -0,9 C 7,8 C
15.04.2012 21:21 9,6 C 49 % 1012,8 hPa 0,0 l/m 5,0 km/h (1 Bft) NO 45 -0,6 C 9,3 C
15.04.2012 21:26 9,5 C 51 % 1013,0 hPa 0,0 l/m 5,0 km/h (1 Bft) NO 45 -0,1 C 9,2 C
15.04.2012 21:31 9,4 C 52 % 1012,9 hPa 0,0 l/m 13,7 km/h (3 Bft) NO 45 0,1 C 7,3 C
15.04.2012 21:36 9,3 C 55 % 1012,8 hPa 0,0 l/m 9,7 km/h (2 Bft) N-NO 22 0,7 C 7,8 C
15.04.2012 21:41 9,3 C 56 % 1012,8 hPa 0,0 l/m 14,8 km/h (3 Bft) NO 45 1,0 C 7,1 C
15.04.2012 21:46 9,3 C 57 % 1013,0 hPa 0,0 l/m 11,5 km/h (2 Bft) NO 45 1,2 C 7,5 C
15.04.2012 21:51 9,2 C 58 % 1012,8 hPa 0,0 l/m 11,2 km/h (2 Bft) N-NO 22 1,4 C 7,5 C
15.04.2012 21:56 9,1 C 59 % 1013,0 hPa 0,0 l/m 9,7 km/h (2 Bft) NO 45 1,5 C 7,6 C
15.04.2012 22:01 9,0 C 59 % 1013,0 hPa 0,0 l/m 10,8 km/h (2 Bft) NO 45 1,4 C 7,3 C
15.04.2012 22:06 8,9 C 59 % 1013,1 hPa 0,0 l/m 9,0 km/h (2 Bft) N-NO 22 1,3 C 7,5 C
15.04.2012 22:11 8,9 C 59 % 1013,1 hPa 0,0 l/m 6,5 km/h (2 Bft) N 360 1,3 C 8,1 C
15.04.2012 22:16 8,9 C 59 % 1013,1 hPa 0,0 l/m 5,0 km/h (1 Bft) N 360 1,3 C 8,5 C
15.04.2012 22:21 8,8 C 60 % 1013,2 hPa 0,0 l/m 4,0 km/h (1 Bft) NO 45 1,5 C 8,8 C
15.04.2012 22:26 8,8 C 60 % 1013,2 hPa 0,0 l/m 9,0 km/h (2 Bft) N-NO 22 1,5 C 7,4 C
15.04.2012 22:31 8,7 C 60 % 1013,2 hPa 0,0 l/m 6,1 km/h (2 Bft) NO 45 1,4 C 7,9 C
15.04.2012 22:36 8,6 C 60 % 1013,3 hPa 0,0 l/m 7,6 km/h (2 Bft) N 360 1,3 C 7,5 C
15.04.2012 22:41 8,5 C 60 % 1013,3 hPa 0,0 l/m 8,3 km/h (2 Bft) N 360 1,2 C 7,2 C
15.04.2012 22:46 8,4 C 61 % 1013,4 hPa 0,0 l/m 5,8 km/h (2 Bft) N-NO 22 1,3 C 7,7 C
15.04.2012 22:51 8,4 C 61 % 1013,4 hPa 0,0 l/m 7,2 km/h (2 Bft) O-NO 67 1,3 C 7,3 C
15.04.2012 22:56 8,3 C 61 % 1013,4 hPa 0,0 l/m 11,9 km/h (2 Bft) N-NO 22 1,2 C 6,3 C
15.04.2012 23:01 8,1 C 61 % 1013,5 hPa 0,0 l/m 9,0 km/h (2 Bft) NO 45 1,0 C 6,6 C
15.04.2012 23:06 8,1 C 62 % 1013,4 hPa 0,0 l/m 4,3 km/h (1 Bft) N-NO 22 1,3 C 8,1 C
15.04.2012 23:11 7,9 C 62 % 1013,5 hPa 0,0 l/m 6,1 km/h (2 Bft) N 360 1,1 C 7,0 C
15.04.2012 23:16 7,8 C 62 % 1013,6 hPa 0,0 l/m 19,1 km/h (3 Bft) N-NO 22 1,0 C 4,7 C
15.04.2012 23:21 7,8 C 63 % 1013,7 hPa 0,0 l/m 7,9 km/h (2 Bft) NO 45 1,2 C 6,4 C
15.04.2012 23:26 7,6 C 63 % 1013,7 hPa 0,0 l/m 4,7 km/h (1 Bft) N-NO 22 1,0 C 7,1 C
15.04.2012 23:31 7,6 C 63 % 1013,7 hPa 0,0 l/m 8,3 km/h (2 Bft) NO 45 1,0 C 6,1 C
15.04.2012 23:36 7,6 C 64 % 1013,9 hPa 0,0 l/m 10,1 km/h (2 Bft) NO 45 1,2 C 5,7 C
15.04.2012 23:41 7,5 C 64 % 1013,9 hPa 0,0 l/m 6,5 km/h (2 Bft) N-NO 22 1,1 C 6,5 C
15.04.2012 23:46 7,4 C 64 % 1014,0 hPa 0,0 l/m 7,6 km/h (2 Bft) NO 45 1,0 C 6,0 C
15.04.2012 23:51 7,3 C 65 % 1013,8 hPa 0,0 l/m 5,4 km/h (1 Bft) N-NW 337 1,2 C 6,6 C
15.04.2012 23:56 7,2 C 64 % 1014,0 hPa 0,0 l/m 10,4 km/h (2 Bft) NO 45 0,9 C 5,2 C
_ Min-Zeit 06:56 16:56 00:01 - 00:51 - - 18:36 06:31
Minimum _ 3,8 C 33 % 1007,8 hPa - 0,0 km/h (0 Bft) - - -2,4 C 3,0 C
_ Max-Zeit 16:06 06:51 23:46 00:01 14:16 - - 11:01 16:06
Maximum _ 15,2 C 81 % 1014,0 hPa 0,0 l/m 25,2 km/h
O-NO (4 Bft)
- - 4,4 C 15,2 C
Durchschnitt _ 9,4 C 59 % 1010,0 hPa #0,0 l/m 6,5 km/h (2 Bft) O-NO - 1,0 C 9,1 C
(c) by David Heller